| time (UTC) | temp F | wind direction | speed MPH | gust MPH | rain 1hr in | rain 24hr in | rain mn in | humidity % | barometer mb |
| 20260507051139 | 45 | 112 | 0.0 | 0.0 | 0.00 | 0.08 | 0.00 | 93 | 1010.0 |
| 20260507050139 | 45 | 112 | 0.0 | 0.0 | 0.00 | 0.08 | 0.00 | 93 | 1009.8 |
| 20260507045139 | 45 | 112 | 0.0 | 0.0 | 0.00 | 0.08 | 0.00 | 93 | 1009.7 |
| 20260507044139 | 45 | 112 | 0.0 | 0.0 | 0.00 | 0.08 | 0.00 | 93 | 1009.5 |
| 20260507043139 | 45 | 135 | 0.0 | 0.0 | 0.00 | 0.08 | 0.00 | 93 | 1009.3 |
| 20260507042139 | 45 | 180 | 0.0 | 0.0 | 0.00 | 0.08 | 0.00 | 93 | 1009.1 |
| 20260507041139 | 45 | 135 | 0.0 | 0.0 | 0.00 | 0.08 | 0.00 | 93 | 1009.1 |
| 20260507040139 | 46 | 90 | 0.0 | 0.0 | 0.00 | 0.08 | 0.00 | 93 | 1009.0 |
| 20260507035139 | 46 | 90 | 0.0 | 0.0 | 0.00 | 0.08 | 0.00 | 93 | 1008.8 |
| 20260507034139 | 46 | 90 | 0.0 | 0.0 | 0.00 | 0.08 | 0.00 | 93 | 1008.8 |
| 20260507033139 | 46 | 112 | 0.0 | 0.0 | 0.00 | 0.08 | 0.00 | 93 | 1008.8 |
| 20260507032139 | 46 | 90 | 0.0 | 0.0 | 0.00 | 0.08 | 0.00 | 93 | 1008.8 |
| 20260507031140 | 46 | 337 | 0.0 | 0.0 | 0.00 | 0.08 | 0.00 | 93 | 1008.6 |
| 20260507030140 | 46 | 157 | 0.0 | 0.0 | 0.00 | 0.08 | 0.00 | 93 | 1008.8 |
| 20260507025140 | 46 | 135 | 0.0 | 0.0 | 0.00 | 0.08 | 0.00 | 93 | 1008.5 |
| 20260507024140 | 46 | 202 | 0.0 | 0.0 | 0.00 | 0.08 | 0.00 | 93 | 1008.6 |
| 20260507023140 | 46 | 45 | 0.0 | 0.0 | 0.02 | 0.08 | 0.00 | 93 | 1008.5 |
| 20260507022140 | 46 | 135 | 0.0 | 0.0 | 0.02 | 0.08 | 0.00 | 93 | 1008.4 |
| 20260507021140 | 46 | 67 | 0.0 | 0.0 | 0.02 | 0.08 | 0.00 | 93 | 1008.3 |
| 20260507020140 | 46 | 292 | 0.0 | 0.0 | 0.04 | 0.08 | 0.00 | 93 | 1008.3 |
| 20260507015140 | 46 | 247 | 0.0 | 0.0 | 0.04 | 0.08 | 0.00 | 93 | 1008.2 |
| 20260507014140 | 46 | 247 | 0.0 | 0.0 | 0.04 | 0.08 | 0.00 | 93 | 1008.0 |
| 20260507013140 | 46 | 67 | 0.0 | 0.0 | 0.02 | 0.06 | 0.00 | 93 | 1008.2 |
| 20260507012140 | 46 | 45 | 0.0 | 0.0 | 0.04 | 0.06 | 0.00 | 93 | 1008.0 |
| 20260507011140 | 46 | 225 | 0.0 | 0.0 | 0.04 | 0.06 | 0.00 | 93 | 1008.0 |
| 20260507010140 | 46 | 225 | 0.0 | 0.0 | 0.02 | 0.04 | 0.00 | 92 | 1008.0 |
| 20260507005140 | 46 | 225 | 0.0 | 0.0 | 0.02 | 0.04 | 0.00 | 92 | 1008.0 |
| 20260507004140 | 47 | 180 | 0.0 | 0.0 | 0.02 | 0.04 | 0.00 | 92 | 1008.1 |
| 20260507003140 | 47 | 202 | 0.0 | 0.0 | 0.02 | 0.04 | 0.00 | 92 | 1008.1 |
| 20260507002140 | 47 | 247 | 0.0 | 0.0 | 0.00 | 0.02 | 0.00 | 92 | 1008.2 |
| 20260507001140 | 47 | 247 | 0.0 | 0.0 | 0.00 | 0.02 | 0.00 | 92 | 1008.0 |
| 20260507000140 | 47 | 225 | 0.0 | 0.0 | 0.00 | 0.02 | 0.00 | 92 | 1008.1 |
| 20260506235140 | 47 | 225 | 0.0 | 0.0 | 0.00 | 0.02 | 0.00 | 92 | 1008.0 |
| 20260506234140 | 47 | 180 | 0.0 | 0.0 | 0.00 | 0.02 | 0.00 | 92 | 1008.1 |
| 20260506233140 | 48 | 247 | 0.0 | 0.0 | 0.00 | 0.02 | 0.00 | 92 | 1007.9 |
| 20260506232140 | 48 | 90 | 0.0 | 0.0 | 0.00 | 0.02 | 0.00 | 92 | 1007.8 |
| 20260506231141 | 48 | 202 | 0.0 | 0.0 | 0.00 | 0.02 | 0.00 | 92 | 1007.9 |
| 20260506230140 | 48 | 202 | 0.0 | 0.0 | 0.00 | 0.02 | 0.00 | 92 | 1007.9 |
| 20260506225140 | 48 | 225 | 0.0 | 0.0 | 0.00 | 0.02 | 0.00 | 92 | 1007.8 |
| 20260506224140 | 49 | 135 | 0.0 | 0.0 | 0.00 | 0.02 | 0.00 | 92 | 1007.7 |
| 20260506223140 | 49 | 270 | 0.0 | 0.0 | 0.00 | 0.02 | 0.00 | 91 | 1007.7 |
| 20260506222140 | 49 | 270 | 0.0 | 0.0 | 0.00 | 0.02 | 0.00 | 91 | 1007.5 |
| 20260506221140 | 49 | 135 | 0.0 | 0.0 | 0.00 | 0.02 | 0.00 | 91 | 1007.4 |
| 20260506220140 | 49 | 112 | 0.0 | 0.0 | 0.00 | 0.02 | 0.00 | 91 | 1007.3 |
| 20260506215140 | 50 | 247 | 0.0 | 0.0 | 0.02 | 0.06 | 0.00 | 91 | 1007.4 |
| 20260506214140 | 50 | 135 | 0.0 | 0.0 | 0.02 | 0.06 | 0.00 | 91 | 1007.2 |
| 20260506213140 | 50 | 247 | 0.0 | 0.0 | 0.02 | 0.06 | 0.00 | 90 | 1007.2 |
| 20260506212140 | 50 | 157 | 0.0 | 0.0 | 0.02 | 0.06 | 0.00 | 91 | 1007.3 |
| 20260506211140 | 50 | 157 | 0.0 | 0.0 | 0.02 | 0.06 | 0.00 | 91 | 1007.1 |
| 20260506210140 | 51 | 157 | 0.0 | 0.0 | 0.00 | 0.04 | 0.00 | 91 | 1007.0 |
| 20260506205140 | 51 | 157 | 0.0 | 0.0 | 0.00 | 0.04 | 0.00 | 91 | 1007.2 |
| 20260506204140 | 51 | 157 | 0.0 | 0.0 | 0.00 | 0.04 | 0.00 | 90 | 1007.0 |
| 20260506203140 | 51 | 157 | 0.0 | 0.0 | 0.00 | 0.04 | 0.00 | 90 | 1006.9 |
| 20260506202140 | 51 | 157 | 0.0 | 0.0 | 0.00 | 0.04 | 0.00 | 90 | 1006.8 |
| 20260506201140 | 51 | 157 | 0.0 | 0.0 | 0.00 | 0.04 | 0.00 | 90 | 1006.8 |
| 20260506200140 | 51 | 225 | 0.0 | 0.0 | 0.00 | 0.04 | 0.00 | 89 | 1006.8 |
| 20260506195140 | 51 | 225 | 0.0 | 0.0 | 0.00 | 0.04 | 0.00 | 89 | 1006.8 |
| 20260506194140 | 51 | 67 | 0.0 | 0.0 | 0.00 | 0.04 | 0.00 | 89 | 1006.7 |
| 20260506193141 | 52 | 157 | 0.0 | 0.0 | 0.00 | 0.04 | 0.00 | 88 | 1006.7 |
| 20260506192141 | 52 | 202 | 0.0 | 0.0 | 0.00 | 0.04 | 0.00 | 87 | 1006.6 |
| 20260506191141 | 52 | 202 | 0.0 | 0.0 | 0.00 | 0.04 | 0.00 | 86 | 1006.5 |
| 20260506190141 | 53 | 292 | 0.0 | 0.0 | 0.00 | 0.04 | 0.00 | 86 | 1006.6 |
| 20260506185141 | 53 | 202 | 0.0 | 0.0 | 0.00 | 0.04 | 0.00 | 85 | 1006.4 |
| 20260506184141 | 54 | 112 | 0.0 | 0.0 | 0.00 | 0.04 | 0.00 | 84 | 1006.4 |
| 20260506183141 | 54 | 0 | 0.0 | 0.0 | 0.00 | 0.04 | 0.00 | 82 | 1006.1 |
| 20260506182141 | 55 | 90 | 0.0 | 0.0 | 0.00 | 0.04 | 0.00 | 81 | 1006.2 |
| 20260506181141 | 55 | 90 | 0.0 | 0.0 | 0.00 | 0.04 | 0.00 | 80 | 1006.0 |
| 20260506180141 | 56 | 90 | 0.0 | 0.0 | 0.00 | 0.04 | 0.00 | 80 | 1006.0 |
| 20260506175141 | 56 | 45 | 0.0 | 0.0 | 0.00 | 0.04 | 0.00 | 78 | 1006.0 |
| 20260506174141 | 57 | 180 | 0.0 | 0.0 | 0.00 | 0.04 | 0.00 | 76 | 1005.9 |
| 20260506173141 | 57 | 202 | 0.0 | 0.0 | 0.00 | 0.04 | 0.00 | 74 | 1005.8 |
| 20260506172141 | 57 | 202 | 0.0 | 0.0 | 0.00 | 0.04 | 0.00 | 72 | 1005.7 |
| 20260506171141 | 57 | 202 | 0.0 | 0.0 | 0.00 | 0.04 | 0.00 | 71 | 1005.8 |
| 20260506170141 | 57 | 225 | 0.0 | 0.0 | 0.00 | 0.04 | 0.00 | 71 | 1005.8 |
| 20260506165141 | 58 | 292 | 0.0 | 0.0 | 0.00 | 0.04 | 0.00 | 72 | 1005.7 |
| 20260506164141 | 58 | 247 | 0.0 | 0.0 | 0.00 | 0.04 | 0.00 | 71 | 1005.8 |
| 20260506163141 | 59 | 247 | 0.0 | 0.0 | 0.00 | 0.04 | 0.00 | 69 | 1005.8 |
| 20260506162141 | 59 | 270 | 0.0 | 0.0 | 0.00 | 0.04 | 0.00 | 67 | 1005.9 |
| 20260506161141 | 60 | 225 | 0.0 | 0.0 | 0.00 | 0.04 | 0.00 | 69 | 1006.1 |
| 20260506160141 | 60 | 135 | 0.0 | 0.0 | 0.00 | 0.04 | 0.00 | 67 | 1006.0 |
| 20260506155141 | 61 | 67 | 0.0 | 0.0 | 0.00 | 0.08 | 0.00 | 66 | 1006.2 |
| 20260506154141 | 62 | 135 | 0.0 | 0.0 | 0.00 | 0.08 | 0.00 | 64 | 1006.2 |
| 20260506153141 | 62 | 225 | 0.0 | 0.0 | 0.00 | 0.08 | 0.00 | 64 | 1006.2 |
| 20260506152141 | 63 | 247 | 0.0 | 0.0 | 0.00 | 0.08 | 0.00 | 62 | 1006.2 |
| 20260506151141 | 63 | 247 | 0.0 | 0.0 | 0.00 | 0.08 | 0.00 | 63 | 1006.2 |
| 20260506150141 | 63 | 247 | 0.0 | 0.0 | 0.00 | 0.08 | 0.00 | 62 | 1006.1 |
| 20260506145141 | 63 | 247 | 0.0 | 0.0 | 0.00 | 0.18 | 0.00 | 64 | 1006.0 |
| 20260506144141 | 63 | 270 | 0.0 | 0.0 | 0.00 | 0.18 | 0.00 | 63 | 1006.1 |
| 20260506143141 | 63 | 202 | 0.0 | 0.0 | 0.00 | 0.18 | 0.00 | 63 | 1006.0 |
| 20260506142141 | 64 | 270 | 0.0 | 0.0 | 0.00 | 0.18 | 0.00 | 63 | 1006.2 |
| 20260506141141 | 64 | 202 | 0.0 | 0.0 | 0.00 | 0.18 | 0.00 | 62 | 1006.2 |
| 20260506140141 | 64 | 45 | 0.0 | 0.0 | 0.00 | 0.18 | 0.00 | 62 | 1006.3 |
| 20260506135141 | 64 | 270 | 0.0 | 0.0 | 0.00 | 0.22 | 0.00 | 63 | 1006.3 |
| 20260506134141 | 64 | 67 | 0.0 | 0.0 | 0.00 | 0.22 | 0.00 | 65 | 1006.4 |
| 20260506133141 | 64 | 157 | 0.0 | 0.0 | 0.00 | 0.22 | 0.00 | 65 | 1006.3 |
| 20260506132141 | 64 | 225 | 0.0 | 0.0 | 0.00 | 0.22 | 0.00 | 63 | 1006.3 |
| 20260506131141 | 64 | 225 | 0.0 | 0.0 | 0.00 | 0.22 | 0.00 | 63 | 1006.1 |
| 20260506130141 | 64 | 247 | 0.0 | 0.0 | 0.00 | 0.22 | 0.00 | 64 | 1006.2 |
| 20260506125141 | 64 | 270 | 0.0 | 0.0 | 0.00 | 0.22 | 0.00 | 63 | 1006.1 |
| 20260506124142 | 64 | 247 | 0.0 | 0.0 | 0.00 | 0.22 | 0.00 | 65 | 1006.1 |
| 20260506123141 | 64 | 247 | 0.0 | 0.0 | 0.00 | 0.22 | 0.00 | 68 | 1006.2 |
| 20260506122141 | 63 | 45 | 0.0 | 0.0 | 0.00 | 0.22 | 0.00 | 67 | 1006.2 |
| 20260506121141 | 63 | 90 | 0.0 | 0.0 | 0.00 | 0.22 | 0.00 | 66 | 1006.2 |
| 20260506120141 | 63 | 180 | 0.0 | 0.0 | 0.00 | 0.22 | 0.00 | 69 | 1006.4 |
| 20260506115142 | 63 | 225 | 0.0 | 0.0 | 0.00 | 0.22 | 0.00 | 68 | 1006.4 |
| 20260506114142 | 63 | 225 | 0.0 | 0.0 | 0.00 | 0.22 | 0.00 | 68 | 1006.4 |
| 20260506113142 | 62 | 157 | 0.0 | 0.0 | 0.00 | 0.22 | 0.00 | 68 | 1006.5 |
| 20260506112142 | 63 | 225 | 0.0 | 0.0 | 0.00 | 0.22 | 0.00 | 67 | 1006.6 |
| 20260506111142 | 65 | 270 | 0.0 | 0.0 | 0.00 | 0.22 | 0.00 | 65 | 1006.5 |
| 20260506110142 | 67 | 202 | 0.0 | 0.0 | 0.00 | 0.22 | 0.00 | 62 | 1006.5 |
| 20260506105142 | 69 | 225 | 0.0 | 0.0 | 0.00 | 0.22 | 0.00 | 62 | 1006.3 |
| 20260506104142 | 69 | 202 | 0.0 | 0.0 | 0.00 | 0.22 | 0.00 | 66 | 1006.1 |
| 20260506103142 | 67 | 202 | 0.0 | 0.0 | 0.00 | 0.22 | 0.00 | 68 | 1006.2 |
| 20260506102142 | 64 | 135 | 0.0 | 0.0 | 0.00 | 0.22 | 0.00 | 70 | 1006.1 |
| 20260506101142 | 65 | 225 | 0.0 | 0.0 | 0.00 | 0.22 | 0.00 | 68 | 1006.0 |
| 20260506100142 | 65 | 202 | 0.0 | 0.0 | 0.00 | 0.22 | 0.00 | 71 | 1006.2 |
| 20260506095142 | 66 | 112 | 0.0 | 0.0 | 0.00 | 0.22 | 0.00 | 71 | 1006.0 |
| 20260506094142 | 64 | 225 | 0.0 | 0.0 | 0.00 | 0.22 | 0.00 | 76 | 1006.1 |
| 20260506093142 | 62 | 247 | 0.0 | 0.0 | 0.00 | 0.22 | 0.00 | 77 | 1006.0 |
| 20260506092142 | 60 | 157 | 0.0 | 0.0 | 0.00 | 0.22 | 0.00 | 78 | 1005.9 |
| 20260506091142 | 61 | 202 | 0.0 | 0.0 | 0.00 | 0.22 | 0.00 | 77 | 1005.8 |
| 20260506090142 | 63 | 90 | 0.0 | 0.0 | 0.00 | 0.22 | 0.00 | 76 | 1005.8 |
| 20260506085142 | 63 | 180 | 0.0 | 0.0 | 0.00 | 0.22 | 0.00 | 75 | 1005.7 |
| 20260506084142 | 63 | 180 | 0.0 | 0.0 | 0.00 | 0.22 | 0.00 | 78 | 1005.4 |
| 20260506083142 | 62 | 202 | 0.0 | 0.0 | 0.00 | 0.22 | 0.00 | 77 | 1005.2 |
| 20260506082142 | 62 | 225 | 0.0 | 0.0 | 0.00 | 0.22 | 0.00 | 81 | 1005.2 |
| 20260506081142 | 60 | 225 | 0.0 | 0.0 | 0.00 | 0.22 | 0.00 | 82 | 1005.1 |
| 20260506080142 | 60 | 112 | 0.0 | 0.0 | 0.00 | 0.22 | 0.00 | 84 | 1005.0 |
| 20260506073143 | 57 | 247 | 0.0 | 0.0 | 0.00 | 0.22 | 0.00 | 92 | 1005.3 |
| 20260506072142 | 56 | 270 | 0.0 | 0.0 | 0.00 | 0.22 | 0.00 | 93 | 1005.2 |
| 20260506071142 | 55 | 247 | 0.0 | 0.0 | 0.00 | 0.22 | 0.00 | 93 | 1005.2 |
| 20260506070142 | 53 | 247 | 0.0 | 0.0 | 0.00 | 0.22 | 0.00 | 94 | 1005.1 |
| 20260506062142 | 51 | 225 | 0.0 | 0.0 | 0.00 | 0.22 | 0.00 | 93 | 1005.1 |
| 20260506061142 | 52 | 247 | 0.0 | 0.0 | 0.00 | 0.22 | 0.00 | 93 | 1005.1 |
| 20260506060142 | 52 | 270 | 0.0 | 0.0 | 0.00 | 0.22 | 0.00 | 93 | 1005.1 |